Regional Weather Roundup
Issued by NWS Goodland, KS

Home | Current Version | Previous Version | Graphics & Text | Print | Product List | Glossary On
Versions: 1 2 3 4 5 6 7 8 9 10 11 12 13 14 15 16 17 18 19 20 21 22 23 24 25 26 27 28 29 30 31 32 33 34 35 36 37 38 39 40 41 42 43 44 45 46 47 48 49 50
000
ASUS43 KGLD 230408
RWRGLD

GOODLAND FORECAST AREA HOURLY WEATHER ROUNDUP
NATIONAL WEATHER SERVICE GOODLAND KS
900 PM MST SAT NOV 22 2014

...OFFICIAL OBSERVATIONS...

CITY           SKY/WX    TMP DP  RH WIND       PRES   REMARKS
GOODLAND KS    CLOUDY    38  22  52 CALM      29.50F
HILL CITY KS   MOCLDY    54  49  83 S22G30    29.53F
IMPERIAL NEB   CLOUDY    43  16  33 CALM      29.52F
MCCOOK NEB     MOCLDY    48  22  35 W5        29.51S
AKRON CO       CLOUDY    43  18  36 CALM      29.55F
BURLINGTON CO  CLOUDY    44  18  35 W8        29.53S
LIMON CO       CLOUDY    43  22  43 W13       29.57F
$$

...UNOFFICIAL OBSERVATIONS...

CITY           SKY/WX    TMP DP  RH WIND       PRES   REMARKS
COLBY KS       CLEAR     45  37  76 SE12      29.52S
GOVE KS          N/A     51  32  48 MISG        N/A
NORTON KS      PTCLDY    48  43  81 S7        29.51F
SHARON SPRINGS   N/A     37  24  59 CALM        N/A
TRIBUNE KS     MOCLDY    39  30  70 SW10      29.52
TRENTON NEB      N/A     50  32  50 NW13        N/A
YUMA CO          N/A     44  15  31 CALM        N/A
$$


USA.gov is the U.S. government's official web portal to all federal, state and local government web resources and services.